Lansing, MI

10:33 AM EDT on April 29, 2017 (GMT -0400)
Capital City

Weather History for KLAN - December, 2011

Change the Weather History Date:

Tuesday, December 6, 2011

  Actual Average Record
Temperature  
Mean Temperature 31 °F 31 °F  
Max Temperature 32 °F 37 °F 65 °F (1998)
Min Temperature 29 °F 25 °F -17 °F (1964)
Degree Days  
Heating Degree Days 34 34  
Month to date heating degree days 181 197  
Since 1 July heating degree days 1437 1611  
Cooling Degree Days 0 0  
Month to date cooling degree days 0 0  
Year to date cooling degree days 767 625  
Moisture  
Dew Point 23 °F    
Average Humidity 74    
Maximum Humidity 78    
Minimum Humidity 69    
Precipitation  
Precipitation T in 0.06 in 1.50 in (1885)
Month to date precipitation 0.50 0.41  
Year to date precipitation 37.17 30.31  
Snow  
Snow T in 0.40 in 7.00 in (1885)
Month to date snowfall 1.0 2.0  
Since 1 July snowfall 9.2 5.8  
Snow Depth 0.00 in    
Sea Level Pressure  
Sea Level Pressure 30.22 in    
Wind  
Wind Speed 6 mph (North)    
Max Wind Speed 14 mph    
Max Gust Speed 17 mph    
Visibility 10 miles    
Events Snow    
T = Trace of Precipitation, MM = Missing Value Source: NWS Daily Summary

Daily Weather History Graph

Daily Weather History Graph

Search for Another Location

Airport or City:

Trip Planner

Search our weather history database for the weather conditions in past years. The results will help you decide how hot, cold, wet, or windy it might be!

Date:

Astronomy

Dec. 06, 2011 Rise Set
Actual Time 7:54 AM EST 5:04 PM EST
Civil Twilight 7:22 AM EST 5:36 PM EST
Nautical Twilight 6:46 AM EST 6:11 PM EST
Astronomical Twilight 6:12 AM EST 6:45 PM EST
Moon 2:34 PM EST (12/6) 4:08 AM EST (12/6)
Length of Visible Light 10h 14m
Length of Day
9h 10m
Waxing Gibbous, 86% of the Moon is Illuminated
Dec 6
Waxing Gibbous
Dec 10
Full
Dec 17
Last Quarter
Dec 24
New
Jan 1
First Quarter

Hourly Weather History & Observations

Time (EST) Temp. Windchill Dew Point Humidity Pressure Visibility Wind Dir Wind Speed Gust Speed Precip Events Conditions
12:53 AM 30.9 °F 22.8 °F 24.1 °F 76% 30.29 in 10.0 mi North 9.2 mph - N/A   Overcast
1:53 AM 30.9 °F 24.3 °F 23.0 °F 72% 30.28 in 10.0 mi North 6.9 mph - N/A   Overcast
2:53 AM 30.2 °F 22.6 °F 23.0 °F 75% 30.25 in 10.0 mi North 8.1 mph - N/A   Overcast
3:53 AM 30.0 °F 22.4 °F 23.0 °F 75% 30.27 in 10.0 mi North 8.1 mph - N/A   Overcast
4:07 AM 30.2 °F 21.9 °F 23.0 °F 75% 30.24 in 10.0 mi North 9.2 mph - N/A   Overcast
4:53 AM 30.0 °F 21.1 °F 21.9 °F 72% 30.27 in 10.0 mi North 10.4 mph - N/A   Overcast
5:01 AM 30.2 °F 24.3 °F 21.2 °F 69% 30.24 in 10.0 mi North 5.8 mph - N/A   Overcast
5:53 AM 28.9 °F 19.2 °F 21.9 °F 75% 30.27 in 10.0 mi North 11.5 mph - N/A   Overcast
6:12 AM 28.4 °F 19.1 °F 21.2 °F 74% 30.24 in 10.0 mi North 10.4 mph - N/A   Overcast
6:53 AM 28.9 °F 19.2 °F 21.0 °F 72% 30.27 in 10.0 mi North 11.5 mph - N/A   Overcast
7:53 AM 28.9 °F 20.4 °F 21.0 °F 72% 30.28 in 10.0 mi North 9.2 mph - N/A   Overcast
8:53 AM 28.9 °F 20.4 °F 21.9 °F 75% 30.28 in 10.0 mi NNW 9.2 mph - N/A   Overcast
9:53 AM 28.9 °F 21.1 °F 21.9 °F 75% 30.28 in 10.0 mi North 8.1 mph - N/A   Overcast
10:53 AM 30.0 °F 23.2 °F 21.9 °F 72% 30.27 in 10.0 mi NNE 6.9 mph - N/A   Overcast
11:53 AM 30.0 °F 23.2 °F 23.0 °F 75% 30.26 in 10.0 mi North 6.9 mph - N/A   Overcast
12:53 PM 30.9 °F 24.3 °F 23.0 °F 72% 30.23 in 10.0 mi North 6.9 mph - N/A   Overcast
1:53 PM 30.9 °F 23.5 °F 23.0 °F 72% 30.19 in 10.0 mi North 8.1 mph - N/A   Overcast
2:53 PM 30.9 °F 24.3 °F 24.1 °F 76% 30.20 in 10.0 mi NW 6.9 mph - N/A   Overcast
3:53 PM 30.9 °F 26.2 °F 24.1 °F 76% 30.17 in 10.0 mi North 4.6 mph - N/A   Overcast
4:23 PM 30.2 °F 24.3 °F 23.0 °F 75% 30.15 in 10.0 mi North 5.8 mph - N/A   Overcast
4:53 PM 30.9 °F 26.2 °F 24.1 °F 76% 30.19 in 10.0 mi NNW 4.6 mph - N/A   Overcast
5:33 PM 30.2 °F - 23.0 °F 75% 30.15 in 10.0 mi Calm Calm - N/A   Overcast
5:53 PM 30.0 °F 25.2 °F 23.0 °F 75% 30.18 in 10.0 mi NNW 4.6 mph - N/A   Overcast
6:53 PM 30.0 °F - 23.0 °F 75% 30.17 in 10.0 mi Calm Calm - N/A   Overcast
7:53 PM 30.0 °F - 24.1 °F 79% 30.18 in 10.0 mi Calm Calm - N/A   Overcast
8:20 PM 30.2 °F - 24.8 °F 80% 30.14 in 10.0 mi Calm Calm - N/A   Overcast
8:53 PM 30.0 °F - 24.1 °F 79% 30.17 in 10.0 mi Calm Calm - N/A   Overcast
9:53 PM 30.0 °F - 24.1 °F 79% 30.14 in 10.0 mi Calm Calm - N/A   Overcast
10:53 PM 30.0 °F 26.5 °F 24.1 °F 79% 30.14 in 10.0 mi WNW 3.5 mph - 0.00 in Snow Light Snow
11:53 PM 30.0 °F 25.2 °F 23.0 °F 75% 30.14 in 9.0 mi WNW 4.6 mph - 0.00 in Snow Light Snow